sat.trackr.live / text

‹ back to catalog

ONEWEB-0203

NORAD 48235 · 2021-031AB

PAYLOAD ACTIVE UNKNOWN

§ Identity

Operator
Country
UK
Launch date
2021-04-25
Launch site
VOSTO
Launch vehicle
Mass (kg)
RCS (m²)

Purposes: comms

External: N2YO · Heavens-Above · Gunter

§ Orbital elements

Epoch: 2026-09-15T18:06:41.797152Z

Period
109.55 min
Inclination
87.8899°
Eccentricity
0.0002023
Mean motion
13.14501746 rev/d
Perigee alt
1,204.3 km
Apogee alt
1,207.3 km
Semi-major
7,583.9 km
B*
-6.0339e-4
RAAN
271.6408°
Arg perigee
82.8150°
Mean anomaly
277.3210°
Rev number
26,017

§ Raw data

ONEWEB-02031 48235U 21031AB  26258.75465043 -.00000211  00000+0 -60339-3 0  99952 48235  87.8899 271.6408 0002023  82.8150 277.3210 13.14501746260172

JSON: /api/v1/satellites/48235 · /tle

For live sub-satellite position, see the globe view (requires WebGL).

§ Visibility from observer

Set your observer location to see the next 7 days of passes ≥ 10°. The values pass through the URL so the page stays shareable.

No JS? Fill the form by hand. The geolocation button needs JavaScript.